Location: Killarney Provincial Park Observatory
(46.0124°N, 81.4000°W)
Time: 00:36:55
(UTC-05:00)

Iridium 22 - Visible Passes

Search period start: 01 February 2015 00:00
Search period end: 11 February 2015 00:00
Orbit: 776 x 779 km, 86.4° (Epoch: 31 January)

Date Brightness Start Highest point End Pass type
(mag) Time Alt. Az. Time Alt. Az. Time Alt. Az.
01 Feb 7.7 19:54:38 10° N 19:55:11 13° N 19:55:11 13° N visible
02 Feb 8.6 07:17:35 10° E 07:19:02 11° ENE 07:20:47 10° NE visible
02 Feb 7.5 19:21:33 10° NNE 19:22:24 14° NNE 19:22:24 14° NNE visible
02 Feb 7.9 21:01:53 10° NNW 21:02:56 16° NNW 21:02:56 16° NNW visible
03 Feb 7.4 18:49:00 10° NE 18:49:45 12° NE 18:49:45 12° NE visible
03 Feb 7.1 20:28:08 10° N 20:30:16 25° N 20:30:16 25° N visible
04 Feb 6.3 19:54:37 10° N 19:57:49 36° NNE 19:57:49 36° NNE visible
04 Feb 8.1 21:36:35 10° NW 21:38:22 16° NW 21:38:22 16° NW visible
05 Feb 6.1 19:21:21 10° NNE 19:25:39 35° ENE 19:25:39 35° ENE visible
05 Feb 7.2 21:02:15 10° NNW 21:06:14 30° WNW 21:06:14 30° WNW visible
06 Feb 6.7 18:48:25 10° NNE 18:52:17 21° ENE 18:54:09 18° E visible
06 Feb 6.2 20:28:20 10° NNW 20:33:26 53° W 20:34:48 41° SW visible
07 Feb 7.2 18:16:21 10° NE 18:18:15 12° ENE 18:20:26 10° E visible
07 Feb 5.4 19:54:41 10° N 19:59:56 87° E 20:05:10 10° S visible
07 Feb 8.4 21:37:42 10° NW 21:39:59 13° WNW 21:42:00 10° W visible
08 Feb 5.6 19:21:16 10° N 19:26:21 50° E 19:31:24 10° SSE visible
08 Feb 7.8 21:02:46 10° NNW 21:06:45 22° W 21:10:37 10° SW visible
09 Feb 8.5 06:43:29 10° E 06:45:38 13° ENE 06:48:02 10° NE visible
09 Feb 6.3 18:48:06 10° NNE 18:52:35 29° ENE 18:57:07 10° SE visible
09 Feb 6.9 20:28:37 10° NNW 20:33:26 38° W 20:38:11 10° SSW visible
10 Feb 6.9 18:15:23 10° NNE 18:18:40 17° ENE 18:22:07 10° ESE visible
10 Feb 5.8 19:54:49 10° N 20:00:01 67° W 20:05:11 10° S visible
